Location: Capelle
(50.3413°N, 1.9974°E)
Time: 22:59:59
(UTC+00:00)

Cosmos 2360 Rocket - Pass Details

Date: 12 January 2026
Orbit: 834 x 842 km, 71.0° (Epoch: 7 February)

Event Time Altitude Azimuth Distance (km) Brightness Sun altitude
Rises 17:07:18 0° 292° (WNW) 3,390 6.1 -8.4°
Reaches altitude 10° 17:12:21 10° 331° (NNW) 2,457 4.7 -9.2°
Maximum altitude 17:13:27 11° 343° (NNW) 2,420 4.5 -9.3°
Drops below altitude 10° 17:14:33 10° 354° (N) 2,458 4.5 -9.5°
Enters shadow 17:18:19 - 26° (NNE) 3,069 4.7 -10.0°
